Voltar ao catálogo

COSMOS 1275 DEB

AtivoPO
NORAD 42218·DEBRIS·🇷🇺 Russia

Lançado Jun 4, 1981 de Plesetsk Cosmodrome

Loading…

Próximas Passagens (próximas 24 horas)

TLE

ObsoletoSource: Space-Track

Época: Aug 23, 2026, 05:18 UTC

1 42218U 81053UJ  26235.22101066  .00001405  00000-0  79997-3 0  9994
2 42218  82.8742 214.2322 0057327 203.6073 156.2470 14.08357502651272

Acompanhe COSMOS 1275 DEB em tempo real com AllMySat

Download on the App Store